| time (UTC) | temp F | wind direction | speed knots | gust knots | rain 1hr in | rain 24hr in | rain mn in | humidity % | barometer mb |
| 20260510033548 | 52 | 231 | 5.2 | 10.4 | 0.00 | 0.03 | 0.03 | 87 | 1003.6 |
| 20260510033108 | 52 | 232 | 5.2 | 11.3 | 0.00 | 0.03 | 0.03 | 87 | 1003.5 |
| 20260510032549 | 52 | 231 | 5.2 | 11.3 | 0.00 | 0.03 | 0.03 | 88 | 1003.6 |
| 20260510032048 | 52 | 217 | 4.3 | 13.9 | 0.00 | 0.03 | 0.03 | 88 | 1003.7 |
| 20260510031554 | 52 | 191 | 4.3 | 13.9 | 0.00 | 0.03 | 0.03 | 88 | 1003.7 |
| 20260510031049 | 52 | 206 | 4.3 | 11.3 | 0.00 | 0.03 | 0.03 | 88 | 1003.6 |
| 20260510030548 | 52 | 221 | 2.6 | 10.4 | 0.00 | 0.03 | 0.03 | 88 | 1003.6 |
| 20260510025548 | 52 | 198 | 2.6 | 10.4 | 0.02 | 0.03 | 0.03 | 89 | 1003.4 |
| 20260510025049 | 52 | 194 | 4.3 | 9.6 | 0.03 | 0.03 | 0.03 | 89 | 1003.5 |
| 20260510024556 | 52 | 196 | 4.3 | 9.6 | 0.03 | 0.03 | 0.03 | 89 | 1003.3 |
| 20260510024048 | 52 | 190 | 3.5 | 12.2 | 0.03 | 0.03 | 0.03 | 88 | 1003.4 |
| 20260510023548 | 52 | 184 | 5.2 | 12.2 | 0.03 | 0.03 | 0.03 | 88 | 1003.3 |
| 20260510023053 | 52 | 172 | 4.3 | 13.0 | 0.03 | 0.03 | 0.03 | 88 | 1003.3 |
| 20260510022549 | 52 | 190 | 4.3 | 13.9 | 0.03 | 0.03 | 0.03 | 87 | 1003.3 |
| 20260510022050 | 52 | 175 | 4.3 | 13.9 | 0.03 | 0.03 | 0.03 | 87 | 1003.3 |
| 20260510021556 | 52 | 171 | 3.5 | 9.6 | 0.03 | 0.03 | 0.03 | 87 | 1003.3 |
| 20260510021047 | 52 | 185 | 4.3 | 9.6 | 0.03 | 0.03 | 0.03 | 86 | 1003.3 |
| 20260510020549 | 52 | 250 | 1.7 | 6.1 | 0.03 | 0.03 | 0.03 | 85 | 1003.3 |
| 20260510020053 | 53 | 176 | 1.7 | 7.8 | 0.03 | 0.03 | 0.03 | 83 | 1003.2 |
| 20260510015550 | 54 | 236 | 3.5 | 12.2 | 0.01 | 0.01 | 0.01 | 79 | 1003.3 |
| 20260510015049 | 54 | 216 | 5.2 | 11.3 | 0.00 | 0.00 | 0.00 | 76 | 1002.9 |
| 20260510014553 | 56 | 176 | 6.1 | 12.2 | 0.00 | 0.00 | 0.00 | 64 | 1002.8 |
| 20260510014049 | 57 | 178 | 6.1 | 13.0 | 0.00 | 0.00 | 0.00 | 63 | 1003.0 |
| 20260510013549 | 57 | 123 | 7.8 | 13.0 | 0.00 | 0.00 | 0.00 | 63 | 1002.7 |
| 20260510013054 | 57 | 101 | 5.2 | 13.0 | 0.00 | 0.00 | 0.00 | 62 | 1002.8 |
| 20260510012552 | 57 | 149 | 5.2 | 13.0 | 0.00 | 0.00 | 0.00 | 61 | 1002.8 |
| 20260510012052 | 57 | 164 | 6.1 | 13.0 | 0.00 | 0.00 | 0.00 | 61 | 1002.9 |
| 20260510011552 | 57 | 160 | 4.3 | 10.4 | 0.00 | 0.00 | 0.00 | 60 | 1002.9 |
| 20260510011047 | 57 | 148 | 5.2 | 8.7 | 0.00 | 0.00 | 0.00 | 60 | 1002.9 |
| 20260510010549 | 57 | 107 | 4.3 | 8.7 | 0.00 | 0.00 | 0.00 | 59 | 1002.9 |
| 20260510010055 | 57 | 146 | 3.5 | 9.6 | 0.00 | 0.00 | 0.00 | 58 | 1002.9 |
| 20260510005551 | 57 | 145 | 4.3 | 9.6 | 0.00 | 0.00 | 0.00 | 58 | 1003.0 |
| 20260510005049 | 57 | 148 | 4.3 | 9.6 | 0.00 | 0.00 | 0.00 | 57 | 1002.9 |
| 20260510004553 | 57 | 126 | 4.3 | 9.6 | 0.00 | 0.00 | 0.00 | 57 | 1002.9 |
| 20260510004048 | 57 | 152 | 3.5 | 8.7 | 0.00 | 0.00 | 0.00 | 55 | 1002.9 |
| 20260510003548 | 58 | 159 | 3.5 | 10.4 | 0.00 | 0.00 | 0.00 | 55 | 1002.9 |
| 20260510003059 | 58 | 166 | 5.2 | 10.4 | 0.00 | 0.00 | 0.00 | 55 | 1003.1 |
| 20260510002547 | 58 | 138 | 4.3 | 10.4 | 0.00 | 0.00 | 0.00 | 55 | 1003.0 |
| 20260510002048 | 58 | 144 | 5.2 | 12.2 | 0.00 | 0.00 | 0.00 | 55 | 1003.1 |
| 20260510001556 | 58 | 162 | 6.1 | 12.2 | 0.00 | 0.00 | 0.00 | 55 | 1003.1 |
| 20260510001049 | 59 | 156 | 4.3 | 12.2 | 0.00 | 0.00 | 0.00 | 54 | 1003.2 |
| 20260510000548 | 59 | 152 | 6.1 | 11.3 | 0.00 | 0.00 | 0.00 | 54 | 1003.3 |
| 20260510000053 | 59 | 167 | 5.2 | 13.9 | 0.00 | 0.00 | 0.00 | 53 | 1003.2 |
| 20260509235550 | 59 | 159 | 6.1 | 13.9 | 0.00 | 0.00 | 0.00 | 52 | 1003.4 |
| 20260509235048 | 59 | 169 | 5.2 | 13.9 | 0.00 | 0.00 | 0.00 | 51 | 1003.5 |
| 20260509234554 | 59 | 191 | 4.3 | 13.9 | 0.00 | 0.00 | 0.00 | 49 | 1003.5 |
| 20260509234049 | 59 | 205 | 6.1 | 13.9 | 0.00 | 0.00 | 0.00 | 48 | 1003.6 |
| 20260509233551 | 59 | 179 | 7.0 | 14.8 | 0.00 | 0.00 | 0.00 | 47 | 1003.6 |
| 20260509233054 | 59 | 173 | 7.0 | 14.8 | 0.00 | 0.00 | 0.00 | 46 | 1003.6 |
| 20260509232548 | 59 | 165 | 6.1 | 13.9 | 0.00 | 0.00 | 0.00 | 45 | 1003.7 |
| 20260509232051 | 60 | 138 | 6.1 | 13.9 | 0.00 | 0.00 | 0.00 | 45 | 1003.8 |
| 20260509231556 | 60 | 173 | 5.2 | 12.2 | 0.00 | 0.00 | 0.00 | 45 | 1004.0 |
| 20260509231048 | 60 | 179 | 5.2 | 13.9 | 0.00 | 0.00 | 0.00 | 45 | 1003.9 |
| 20260509230548 | 60 | 156 | 6.1 | 14.8 | 0.00 | 0.00 | 0.00 | 44 | 1003.9 |
| 20260509230059 | 60 | 169 | 4.3 | 14.8 | 0.00 | 0.00 | 0.00 | 44 | 1003.9 |
| 20260509225550 | 60 | 238 | 5.2 | 13.9 | 0.00 | 0.00 | 0.00 | 43 | 1003.8 |
| 20260509225052 | 60 | 169 | 4.3 | 13.9 | 0.00 | 0.00 | 0.00 | 42 | 1003.9 |
| 20260509224601 | 60 | 215 | 6.1 | 16.5 | 0.00 | 0.00 | 0.00 | 41 | 1003.9 |
| 20260509224052 | 60 | 178 | 4.3 | 17.4 | 0.00 | 0.00 | 0.00 | 41 | 1003.8 |
| 20260509223549 | 60 | 200 | 8.7 | 17.4 | 0.00 | 0.00 | 0.00 | 41 | 1003.8 |
| 20260509223058 | 61 | 244 | 5.2 | 11.3 | 0.00 | 0.00 | 0.00 | 43 | 1003.9 |
| 20260509222551 | 61 | 234 | 6.1 | 11.3 | 0.00 | 0.00 | 0.00 | 43 | 1003.8 |
| 20260509222048 | 61 | 155 | 3.5 | 17.4 | 0.00 | 0.00 | 0.00 | 43 | 1003.9 |
| 20260509221557 | 61 | 220 | 5.2 | 20.0 | 0.00 | 0.00 | 0.00 | 42 | 1003.8 |
| 20260509221047 | 61 | 163 | 6.1 | 20.0 | 0.00 | 0.00 | 0.00 | 41 | 1003.8 |
| 20260509220550 | 61 | 185 | 5.2 | 15.6 | 0.00 | 0.00 | 0.00 | 41 | 1003.7 |
| 20260509220107 | 61 | 212 | 4.3 | 15.6 | 0.00 | 0.00 | 0.00 | 40 | 1003.8 |
| 20260509215548 | 61 | 203 | 6.1 | 15.6 | 0.00 | 0.00 | 0.00 | 39 | 1003.8 |
| 20260509215049 | 61 | 229 | 5.2 | 13.0 | 0.00 | 0.00 | 0.00 | 39 | 1003.7 |
| 20260509214600 | 61 | 215 | 6.1 | 14.8 | 0.00 | 0.00 | 0.00 | 37 | 1003.7 |
| 20260509214048 | 61 | 178 | 7.0 | 15.6 | 0.00 | 0.00 | 0.00 | 37 | 1003.6 |
| 20260509213640 | 62 | 194 | 7.0 | 17.4 | 0.00 | 0.00 | 0.00 | 38 | 1003.7 |
| 20260509213122 | 62 | 211 | 5.2 | 17.4 | 0.00 | 0.00 | 0.00 | 37 | 1003.7 |
| 20260509212549 | 62 | 231 | 6.1 | 15.6 | 0.00 | 0.00 | 0.00 | 37 | 1003.9 |
| 20260509212052 | 62 | 223 | 6.1 | 16.5 | 0.00 | 0.00 | 0.00 | 36 | 1004.0 |
| 20260509211556 | 63 | 175 | 8.7 | 17.4 | 0.00 | 0.00 | 0.00 | 38 | 1003.8 |
| 20260509211049 | 63 | 229 | 6.1 | 18.2 | 0.00 | 0.00 | 0.00 | 38 | 1003.8 |
| 20260509210549 | 64 | 181 | 8.7 | 21.7 | 0.00 | 0.00 | 0.00 | 37 | 1003.9 |
| 20260509210104 | 65 | 186 | 8.7 | 21.7 | 0.00 | 0.00 | 0.00 | 36 | 1003.9 |
| 20260509205549 | 65 | 182 | 11.3 | 20.9 | 0.00 | 0.00 | 0.00 | 34 | 1003.9 |
| 20260509205048 | 65 | 192 | 7.8 | 22.6 | 0.00 | 0.00 | 0.00 | 37 | 1003.7 |
| 20260509204555 | 65 | 186 | 8.7 | 22.6 | 0.00 | 0.00 | 0.00 | 39 | 1003.7 |
| 20260509204049 | 66 | 209 | 5.2 | 15.6 | 0.00 | 0.00 | 0.00 | 39 | 1003.7 |
| 20260509203548 | 64 | 134 | 6.1 | 16.5 | 0.00 | 0.00 | 0.00 | 42 | 1003.8 |
| 20260509203054 | 64 | 192 | 6.1 | 16.5 | 0.00 | 0.00 | 0.00 | 41 | 1003.9 |
| 20260509202549 | 64 | 165 | 7.8 | 16.5 | 0.00 | 0.00 | 0.00 | 40 | 1004.0 |
| 20260509202049 | 64 | 147 | 7.8 | 19.1 | 0.00 | 0.00 | 0.00 | 39 | 1003.9 |
| 20260509201552 | 64 | 157 | 8.7 | 19.1 | 0.00 | 0.00 | 0.00 | 36 | 1003.9 |
| 20260509201048 | 65 | 180 | 10.4 | 19.1 | 0.00 | 0.00 | 0.00 | 35 | 1003.9 |
| 20260509200552 | 65 | 157 | 9.6 | 17.4 | 0.00 | 0.00 | 0.00 | 35 | 1003.9 |
| 20260509200100 | 65 | 176 | 10.4 | 20.0 | 0.00 | 0.00 | 0.00 | 34 | 1004.0 |
| 20260509195546 | 66 | 164 | 8.7 | 20.0 | 0.00 | 0.00 | 0.00 | 33 | 1004.2 |
| 20260509195050 | 66 | 198 | 7.0 | 18.2 | 0.00 | 0.00 | 0.00 | 33 | 1004.2 |
| 20260509194556 | 65 | 200 | 7.0 | 18.2 | 0.00 | 0.00 | 0.00 | 32 | 1004.2 |
| 20260509194047 | 65 | 232 | 5.2 | 18.2 | 0.00 | 0.00 | 0.00 | 31 | 1004.2 |
| 20260509193549 | 65 | 127 | 8.7 | 23.5 | 0.00 | 0.00 | 0.00 | 30 | 1004.2 |
| 20260509193055 | 65 | 183 | 7.8 | 23.5 | 0.00 | 0.00 | 0.00 | 31 | 1004.2 |
| 20260509192549 | 66 | 142 | 6.1 | 18.2 | 0.00 | 0.00 | 0.00 | 29 | 1004.3 |
| 20260509192048 | 66 | 197 | 10.4 | 18.2 | 0.00 | 0.00 | 0.00 | 30 | 1004.4 |
| 20260509191555 | 67 | 157 | 7.8 | 18.2 | 0.00 | 0.00 | 0.00 | 28 | 1004.5 |
| 20260509191049 | 67 | 99 | 9.6 | 20.0 | 0.00 | 0.00 | 0.00 | 27 | 1004.4 |
| 20260509190545 | 67 | 165 | 5.2 | 20.0 | 0.00 | 0.00 | 0.00 | 26 | 1004.6 |
| 20260509190057 | 66 | 136 | 7.8 | 21.7 | 0.00 | 0.00 | 0.00 | 26 | 1004.7 |
| 20260509185548 | 66 | 157 | 10.4 | 21.7 | 0.00 | 0.00 | 0.00 | 27 | 1004.7 |
| 20260509185048 | 67 | 133 | 10.4 | 20.9 | 0.00 | 0.00 | 0.00 | 26 | 1004.7 |
| 20260509184555 | 66 | 153 | 7.8 | 20.0 | 0.00 | 0.00 | 0.00 | 28 | 1004.9 |
| 20260509184046 | 65 | 157 | 11.3 | 20.0 | 0.00 | 0.00 | 0.00 | 27 | 1005.0 |
| 20260509183549 | 67 | 176 | 9.6 | 19.1 | 0.00 | 0.00 | 0.00 | 26 | 1004.9 |
| 20260509183058 | 66 | 172 | 7.0 | 16.5 | 0.00 | 0.00 | 0.00 | 29 | 1005.2 |
| 20260509182552 | 66 | 185 | 7.8 | 16.5 | 0.00 | 0.00 | 0.00 | 26 | 1005.3 |
| 20260509182048 | 65 | 170 | 7.0 | 16.5 | 0.00 | 0.00 | 0.00 | 27 | 1005.4 |
| 20260509181601 | 65 | 168 | 7.8 | 20.9 | 0.00 | 0.00 | 0.00 | 26 | 1005.5 |
| 20260509181049 | 65 | 164 | 12.2 | 20.9 | 0.00 | 0.00 | 0.00 | 27 | 1005.7 |
| 20260509180549 | 65 | 97 | 11.3 | 20.9 | 0.00 | 0.00 | 0.00 | 26 | 1005.5 |
| 20260509180100 | 66 | 140 | 5.2 | 17.4 | 0.00 | 0.00 | 0.00 | 29 | 1005.9 |
| 20260509175548 | 64 | 182 | 7.8 | 17.4 | 0.00 | 0.00 | 0.00 | 28 | 1005.8 |
| 20260509175048 | 65 | 170 | 7.0 | 20.0 | 0.00 | 0.00 | 0.00 | 28 | 1005.9 |
| 20260509174559 | 65 | 229 | 8.7 | 20.0 | 0.00 | 0.00 | 0.00 | 27 | 1006.1 |
| 20260509174050 | 64 | 135 | 8.7 | 20.0 | 0.00 | 0.00 | 0.00 | 28 | 1006.0 |
| 20260509173548 | 64 | 150 | 11.3 | 20.9 | 0.00 | 0.00 | 0.00 | 28 | 1006.2 |
| 20260509173058 | 64 | 185 | 10.4 | 25.2 | 0.00 | 0.00 | 0.00 | 29 | 1006.2 |
| 20260509172549 | 64 | 178 | 10.4 | 25.2 | 0.00 | 0.00 | 0.00 | 29 | 1006.2 |
| 20260509172052 | 65 | 137 | 10.4 | 22.6 | 0.00 | 0.00 | 0.00 | 28 | 1006.3 |
| 20260509171556 | 64 | 159 | 7.0 | 17.4 | 0.00 | 0.00 | 0.00 | 29 | 1006.1 |
| 20260509171050 | 64 | 163 | 6.1 | 18.2 | 0.00 | 0.00 | 0.00 | 30 | 1006.1 |
| 20260509170549 | 64 | 160 | 10.4 | 18.2 | 0.00 | 0.00 | 0.00 | 28 | 1006.3 |
| 20260509170055 | 64 | 205 | 6.1 | 20.0 | 0.00 | 0.00 | 0.00 | 28 | 1006.3 |
| 20260509165549 | 63 | 164 | 9.6 | 16.5 | 0.00 | 0.00 | 0.00 | 28 | 1006.4 |
| 20260509165048 | 64 | 178 | 8.7 | 18.2 | 0.00 | 0.00 | 0.00 | 30 | 1006.7 |
| 20260509164606 | 63 | 137 | 8.7 | 21.7 | 0.00 | 0.00 | 0.00 | 30 | 1006.7 |
| 20260509164053 | 64 | 179 | 9.6 | 21.7 | 0.00 | 0.00 | 0.00 | 31 | 1006.7 |
| 20260509163551 | 63 | 169 | 7.0 | 13.9 | 0.00 | 0.00 | 0.00 | 30 | 1006.8 |
| 20260509163057 | 63 | 160 | 6.1 | 13.9 | 0.00 | 0.00 | 0.00 | 30 | 1007.0 |
| 20260509162553 | 63 | 160 | 6.1 | 15.6 | 0.00 | 0.00 | 0.00 | 31 | 1007.1 |
| 20260509162050 | 62 | 155 | 8.7 | 16.5 | 0.00 | 0.00 | 0.00 | 31 | 1007.2 |
| 20260509161603 | 62 | 180 | 7.8 | 18.2 | 0.00 | 0.00 | 0.00 | 31 | 1007.4 |
| 20260509161054 | 62 | 202 | 10.4 | 18.2 | 0.00 | 0.00 | 0.00 | 31 | 1007.4 |
| 20260509160553 | 62 | 158 | 12.2 | 18.2 | 0.00 | 0.00 | 0.00 | 31 | 1007.4 |
| 20260509160052 | 62 | 167 | 8.7 | 18.2 | 0.00 | 0.00 | 0.00 | 32 | 1007.4 |
| 20260509155550 | 61 | 206 | 9.6 | 19.1 | 0.00 | 0.00 | 0.00 | 33 | 1007.6 |
| 20260509155050 | 62 | 145 | 9.6 | 19.1 | 0.00 | 0.00 | 0.00 | 33 | 1007.7 |
| 20260509154607 | 61 | 149 | 11.3 | 18.2 | 0.00 | 0.00 | 0.00 | 33 | 1007.7 |
| 20260509154048 | 62 | 236 | 6.1 | 17.4 | 0.00 | 0.00 | 0.00 | 32 | 1007.9 |
| 20260509153548 | 61 | 165 | 8.7 | 18.2 | 0.00 | 0.00 | 0.00 | 33 | 1008.0 |
| 20260509153103 | 61 | 186 | 7.0 | 20.9 | 0.00 | 0.00 | 0.00 | 34 | 1008.0 |
| 20260509152547 | 62 | 195 | 9.6 | 20.9 | 0.00 | 0.00 | 0.00 | 34 | 1008.1 |
| 20260509152049 | 61 | 183 | 7.0 | 17.4 | 0.00 | 0.00 | 0.00 | 36 | 1008.2 |
| 20260509151555 | 60 | 169 | 5.2 | 13.0 | 0.00 | 0.00 | 0.00 | 38 | 1008.3 |
| 20260509151048 | 60 | 182 | 7.0 | 14.8 | 0.00 | 0.00 | 0.00 | 39 | 1008.4 |
| 20260509150548 | 60 | 175 | 6.1 | 14.8 | 0.00 | 0.00 | 0.00 | 38 | 1008.3 |
| 20260509150055 | 60 | 175 | 7.8 | 15.6 | 0.00 | 0.00 | 0.00 | 36 | 1008.5 |
| 20260509145549 | 59 | 205 | 7.8 | 15.6 | 0.00 | 0.00 | 0.00 | 35 | 1008.5 |
| 20260509145049 | 60 | 188 | 4.3 | 13.9 | 0.00 | 0.00 | 0.00 | 38 | 1008.6 |
| 20260509144556 | 59 | 254 | 8.7 | 19.1 | 0.00 | 0.00 | 0.00 | 40 | 1008.5 |
| 20260509144053 | 59 | 163 | 7.8 | 19.1 | 0.00 | 0.00 | 0.00 | 39 | 1008.6 |
| 20260509143549 | 59 | 172 | 8.7 | 17.4 | 0.00 | 0.00 | 0.00 | 39 | 1008.6 |
| 20260509143054 | 59 | 202 | 5.2 | 14.8 | 0.00 | 0.00 | 0.00 | 40 | 1008.7 |
| 20260509142549 | 58 | 179 | 6.1 | 15.6 | 0.00 | 0.00 | 0.00 | 41 | 1008.7 |
| 20260509142050 | 58 | 187 | 7.0 | 19.1 | 0.00 | 0.00 | 0.00 | 40 | 1008.7 |
| 20260509141556 | 58 | 229 | 5.2 | 19.1 | 0.00 | 0.00 | 0.00 | 42 | 1008.8 |
| 20260509141052 | 58 | 172 | 6.1 | 16.5 | 0.00 | 0.00 | 0.00 | 41 | 1008.8 |
| 20260509140549 | 57 | 202 | 8.7 | 17.4 | 0.00 | 0.00 | 0.00 | 43 | 1008.9 |
| 20260509135547 | 56 | 155 | 7.8 | 18.2 | 0.00 | 0.00 | 0.00 | 44 | 1008.9 |
| 20260509135050 | 56 | 184 | 7.0 | 18.2 | 0.00 | 0.00 | 0.00 | 43 | 1008.8 |
| 20260509134552 | 56 | 178 | 5.2 | 13.9 | 0.00 | 0.00 | 0.00 | 45 | 1009.0 |
| 20260509134050 | 56 | 172 | 6.1 | 13.0 | 0.00 | 0.00 | 0.00 | 45 | 1008.9 |
| 20260509133549 | 56 | 167 | 5.2 | 13.0 | 0.00 | 0.00 | 0.00 | 49 | 1008.9 |
| 20260509133053 | 54 | 213 | 7.0 | 10.4 | 0.00 | 0.00 | 0.00 | 49 | 1009.1 |
| 20260509132548 | 55 | 178 | 5.2 | 10.4 | 0.00 | 0.00 | 0.00 | 49 | 1009.1 |
| 20260509132048 | 54 | 159 | 4.3 | 9.6 | 0.00 | 0.00 | 0.00 | 49 | 1009.2 |
| 20260509131551 | 54 | 173 | 3.5 | 9.6 | 0.00 | 0.00 | 0.00 | 49 | 1009.3 |
| 20260509131049 | 53 | 226 | 4.3 | 9.6 | 0.00 | 0.00 | 0.00 | 50 | 1009.3 |
| 20260509130551 | 53 | 207 | 4.3 | 8.7 | 0.00 | 0.00 | 0.00 | 50 | 1009.4 |
| 20260509130051 | 52 | 196 | 2.6 | 9.6 | 0.00 | 0.00 | 0.00 | 51 | 1009.0 |
| 20260509125549 | 52 | 211 | 3.5 | 10.4 | 0.00 | 0.00 | 0.00 | 52 | 1009.6 |
| 20260509125049 | 51 | 191 | 4.3 | 12.2 | 0.00 | 0.00 | 0.00 | 51 | 1009.6 |
| 20260509124549 | 51 | 171 | 6.1 | 12.2 | 0.00 | 0.00 | 0.00 | 52 | 1009.3 |
| 20260509124049 | 51 | 137 | 1.7 | 10.4 | 0.00 | 0.00 | 0.00 | 55 | 1009.4 |
| 20260509123550 | 50 | 161 | 3.5 | 10.4 | 0.00 | 0.00 | 0.00 | 55 | 1009.4 |
| 20260509123056 | 49 | 198 | 4.3 | 7.8 | 0.00 | 0.00 | 0.00 | 56 | 1009.4 |
| 20260509122550 | 0 | 212 | 6.1 | 0.0 | 0.00 | 0.00 | 0.00 | 58 | 1009.3 |
| 20260509122324 | 48 | 182 | 3.5 | 8.7 | 0.00 | 0.00 | 0.00 | 58 | 1009.1 |
| 20260509121605 | 47 | 161 | 4.3 | 8.7 | 0.00 | 0.00 | 0.00 | 60 | 1009.2 |
| 20260509121049 | 46 | 190 | 4.3 | 8.7 | 0.00 | 0.00 | 0.00 | 61 | 1009.1 |
| 20260509120549 | 46 | 178 | 3.5 | 7.8 | 0.00 | 0.00 | 0.00 | 62 | 1009.2 |
| 20260509120112 | 46 | 155 | 2.6 | 8.7 | 0.00 | 0.00 | 0.00 | 63 | 1009.1 |
| 20260509115548 | 45 | 202 | 3.5 | 8.7 | 0.00 | 0.00 | 0.00 | 63 | 1009.1 |
| 20260509115049 | 44 | 195 | 3.5 | 8.7 | 0.00 | 0.00 | 0.00 | 65 | 1009.1 |
| 20260509114551 | 43 | 185 | 3.5 | 7.0 | 0.00 | 0.00 | 0.00 | 66 | 1009.2 |
| 20260509114049 | 43 | 192 | 2.6 | 7.0 | 0.00 | 0.00 | 0.00 | 67 | 1009.1 |
| 20260509113548 | 42 | 169 | 2.6 | 7.8 | 0.00 | 0.00 | 0.00 | 68 | 1009.1 |
| 20260509113056 | 42 | 160 | 3.5 | 8.7 | 0.00 | 0.00 | 0.00 | 69 | 1009.1 |
| 20260509112549 | 41 | 159 | 4.3 | 8.7 | 0.00 | 0.00 | 0.00 | 69 | 1009.0 |
| 20260509112049 | 41 | 174 | 4.3 | 8.7 | 0.00 | 0.00 | 0.00 | 69 | 1008.9 |
| 20260509111556 | 41 | 145 | 3.5 | 7.8 | 0.00 | 0.00 | 0.00 | 70 | 1009.0 |
| 20260509111049 | 40 | 162 | 4.3 | 7.8 | 0.00 | 0.00 | 0.00 | 70 | 1009.0 |
| 20260509110549 | 40 | 157 | 3.5 | 7.8 | 0.00 | 0.00 | 0.00 | 71 | 1008.9 |
| 20260509105551 | 39 | 164 | 3.5 | 7.0 | 0.00 | 0.00 | 0.00 | 72 | 1008.9 |
| 20260509105049 | 39 | 168 | 2.6 | 7.0 | 0.00 | 0.00 | 0.00 | 72 | 1008.9 |
| 20260509104556 | 39 | 165 | 2.6 | 6.1 | 0.00 | 0.00 | 0.00 | 72 | 1008.8 |
| 20260509104048 | 39 | 195 | 2.6 | 7.0 | 0.00 | 0.00 | 0.00 | 72 | 1008.8 |
| 20260509103548 | 39 | 160 | 2.6 | 7.0 | 0.00 | 0.00 | 0.00 | 72 | 1008.8 |
| 20260509103102 | 39 | 173 | 3.5 | 7.8 | 0.00 | 0.00 | 0.00 | 71 | 1008.7 |
| 20260509102549 | 39 | 179 | 4.3 | 8.7 | 0.00 | 0.00 | 0.00 | 71 | 1008.7 |
| 20260509102049 | 38 | 174 | 3.5 | 8.7 | 0.00 | 0.00 | 0.00 | 72 | 1008.7 |
| 20260509101601 | 38 | 161 | 3.5 | 7.8 | 0.00 | 0.00 | 0.00 | 72 | 1008.7 |
| 20260509101049 | 38 | 178 | 4.3 | 7.0 | 0.00 | 0.00 | 0.00 | 73 | 1008.7 |
| 20260509100548 | 37 | 152 | 3.5 | 7.0 | 0.00 | 0.00 | 0.00 | 74 | 1008.7 |
| 20260509100053 | 37 | 169 | 3.5 | 6.1 | 0.00 | 0.00 | 0.00 | 74 | 1008.7 |
| 20260509095548 | 37 | 175 | 3.5 | 6.1 | 0.00 | 0.00 | 0.00 | 74 | 1008.8 |
| 20260509095049 | 37 | 173 | 3.5 | 6.1 | 0.00 | 0.00 | 0.00 | 74 | 1008.8 |
| 20260509094552 | 37 | 169 | 3.5 | 7.0 | 0.00 | 0.00 | 0.00 | 74 | 1008.7 |
| 20260509094049 | 37 | 168 | 3.5 | 7.0 | 0.00 | 0.00 | 0.00 | 74 | 1008.7 |
| 20260509093549 | 37 | 147 | 2.6 | 6.1 | 0.00 | 0.00 | 0.00 | 74 | 1008.6 |
| 20260509093054 | 37 | 182 | 2.6 | 6.1 | 0.00 | 0.00 | 0.00 | 74 | 1008.6 |
| 20260509092552 | 37 | 168 | 2.6 | 6.1 | 0.00 | 0.00 | 0.00 | 73 | 1008.6 |
| 20260509092049 | 37 | 173 | 3.5 | 6.1 | 0.00 | 0.00 | 0.00 | 73 | 1008.6 |
| 20260509091622 | 37 | 172 | 2.6 | 6.1 | 0.00 | 0.00 | 0.00 | 73 | 1008.6 |
| 20260509091051 | 37 | 173 | 1.7 | 6.1 | 0.00 | 0.00 | 0.00 | 72 | 1008.6 |
| 20260509090553 | 37 | 196 | 2.6 | 6.1 | 0.00 | 0.00 | 0.00 | 72 | 1008.8 |
| 20260509090055 | 37 | 170 | 2.6 | 6.1 | 0.00 | 0.00 | 0.00 | 72 | 1008.7 |
| 20260509085549 | 37 | 184 | 2.6 | 7.0 | 0.00 | 0.00 | 0.00 | 72 | 1008.7 |
| 20260509085049 | 37 | 171 | 2.6 | 7.0 | 0.00 | 0.00 | 0.00 | 72 | 1008.7 |
| 20260509084554 | 37 | 189 | 2.6 | 6.1 | 0.00 | 0.00 | 0.00 | 72 | 1008.7 |
| 20260509084050 | 38 | 175 | 2.6 | 6.1 | 0.00 | 0.00 | 0.00 | 71 | 1008.7 |
| 20260509083551 | 38 | 161 | 2.6 | 7.0 | 0.00 | 0.00 | 0.00 | 71 | 1008.7 |
| 20260509083055 | 38 | 164 | 3.5 | 7.0 | 0.00 | 0.00 | 0.00 | 71 | 1008.7 |
| 20260509082550 | 37 | 184 | 3.5 | 6.1 | 0.00 | 0.00 | 0.00 | 71 | 1008.7 |
| 20260509082053 | 37 | 157 | 3.5 | 5.2 | 0.00 | 0.00 | 0.00 | 72 | 1008.8 |
| 20260509081552 | 37 | 164 | 2.6 | 5.2 | 0.00 | 0.00 | 0.00 | 72 | 1008.9 |
| 20260509081050 | 37 | 177 | 2.6 | 5.2 | 0.00 | 0.00 | 0.00 | 72 | 1008.9 |
| 20260509080551 | 37 | 141 | 2.6 | 5.2 | 0.00 | 0.00 | 0.00 | 72 | 1008.9 |
| 20260509080105 | 37 | 167 | 2.6 | 5.2 | 0.00 | 0.00 | 0.00 | 72 | 1008.9 |
| 20260509075549 | 37 | 173 | 2.6 | 5.2 | 0.00 | 0.00 | 0.00 | 72 | 1008.9 |
| 20260509075049 | 37 | 179 | 1.7 | 6.1 | 0.00 | 0.00 | 0.00 | 71 | 1008.9 |
| 20260509074554 | 37 | 175 | 2.6 | 6.1 | 0.00 | 0.00 | 0.00 | 71 | 1009.0 |
| 20260509074050 | 38 | 171 | 2.6 | 6.1 | 0.00 | 0.00 | 0.00 | 71 | 1009.0 |
| 20260509073549 | 38 | 169 | 2.6 | 6.1 | 0.00 | 0.00 | 0.00 | 71 | 1008.9 |
| 20260509073124 | 38 | 168 | 3.5 | 6.1 | 0.00 | 0.00 | 0.00 | 70 | 1009.0 |
| 20260509072553 | 38 | 184 | 3.5 | 6.1 | 0.00 | 0.00 | 0.00 | 70 | 1008.9 |
| 20260509072049 | 38 | 173 | 2.6 | 6.1 | 0.00 | 0.00 | 0.00 | 70 | 1008.9 |
| 20260509071551 | 38 | 169 | 3.5 | 6.1 | 0.00 | 0.00 | 0.00 | 69 | 1009.0 |
| 20260509071050 | 38 | 183 | 2.6 | 7.0 | 0.00 | 0.00 | 0.00 | 69 | 1009.1 |
| 20260509070552 | 38 | 155 | 3.5 | 7.0 | 0.00 | 0.00 | 0.00 | 69 | 1009.1 |
| 20260509070058 | 38 | 168 | 3.5 | 7.0 | 0.00 | 0.00 | 0.00 | 68 | 1008.9 |
| 20260509065549 | 39 | 199 | 2.6 | 7.0 | 0.00 | 0.00 | 0.00 | 68 | 1008.9 |
| 20260509065049 | 39 | 175 | 3.5 | 5.2 | 0.00 | 0.00 | 0.00 | 68 | 1009.0 |
| 20260509064551 | 39 | 144 | 2.6 | 5.2 | 0.00 | 0.00 | 0.00 | 67 | 1009.0 |
| 20260509064053 | 39 | 145 | 3.5 | 5.2 | 0.00 | 0.00 | 0.00 | 67 | 1009.0 |
| 20260509063549 | 39 | 174 | 2.6 | 5.2 | 0.00 | 0.00 | 0.00 | 66 | 1009.1 |
| 20260509063051 | 39 | 156 | 2.6 | 5.2 | 0.00 | 0.00 | 0.00 | 66 | 1009.2 |
| 20260509062549 | 39 | 184 | 1.7 | 4.3 | 0.00 | 0.00 | 0.00 | 65 | 1009.2 |
| 20260509062053 | 40 | 157 | 2.6 | 4.3 | 0.00 | 0.00 | 0.00 | 65 | 1009.2 |
| 20260509061620 | 40 | 157 | 3.5 | 4.3 | 0.00 | 0.00 | 0.00 | 64 | 1009.3 |
| 20260509061048 | 40 | 140 | 1.7 | 4.3 | 0.00 | 0.00 | 0.00 | 64 | 1009.2 |
| 20260509060548 | 41 | 155 | 2.6 | 4.3 | 0.00 | 0.00 | 0.00 | 64 | 1009.3 |
| 20260509060107 | 41 | 171 | 1.7 | 6.1 | 0.00 | 0.00 | 0.00 | 63 | 1009.3 |
| 20260509055548 | 42 | 173 | 2.6 | 6.1 | 0.00 | 0.00 | 0.00 | 63 | 1009.4 |
| 20260509055050 | 42 | 178 | 1.7 | 7.8 | 0.00 | 0.00 | 0.00 | 63 | 1009.3 |
| 20260509054611 | 42 | 169 | 2.6 | 7.8 | 0.00 | 0.00 | 0.00 | 62 | 1009.3 |
| 20260509054047 | 42 | 189 | 3.5 | 6.1 | 0.00 | 0.00 | 0.00 | 62 | 1009.3 |
| 20260509053548 | 42 | 173 | 2.6 | 6.1 | 0.00 | 0.00 | 0.00 | 62 | 1009.4 |
| 20260509053058 | 43 | 173 | 3.5 | 6.1 | 0.00 | 0.00 | 0.00 | 62 | 1009.4 |
| 20260509052548 | 43 | 175 | 3.5 | 5.2 | 0.00 | 0.00 | 0.00 | 61 | 1009.4 |
| 20260509052048 | 43 | 166 | 2.6 | 6.1 | 0.00 | 0.00 | 0.00 | 61 | 1009.3 |
| 20260509051556 | 43 | 168 | 1.7 | 6.1 | 0.00 | 0.00 | 0.00 | 60 | 1009.5 |
| 20260509051048 | 44 | 188 | 2.6 | 5.2 | 0.00 | 0.00 | 0.00 | 59 | 1009.4 |
| 20260509050552 | 44 | 179 | 1.7 | 6.1 | 0.00 | 0.00 | 0.00 | 58 | 1009.6 |
| 20260509050057 | 44 | 171 | 1.7 | 6.1 | 0.00 | 0.00 | 0.00 | 58 | 1009.6 |
| 20260509045548 | 44 | 184 | 2.6 | 6.1 | 0.00 | 0.00 | 0.00 | 57 | 1009.6 |
| 20260509045048 | 44 | 195 | 2.6 | 7.8 | 0.00 | 0.00 | 0.00 | 57 | 1009.5 |
| 20260509044550 | 45 | 194 | 2.6 | 7.8 | 0.00 | 0.00 | 0.00 | 57 | 1009.6 |
| 20260509044048 | 45 | 215 | 2.6 | 9.6 | 0.00 | 0.00 | 0.00 | 56 | 1009.5 |
| 20260509043549 | 45 | 211 | 2.6 | 9.6 | 0.00 | 0.00 | 0.00 | 56 | 1009.6 |
| 20260509043052 | 45 | 186 | 2.6 | 8.7 | 0.00 | 0.00 | 0.00 | 56 | 1009.7 |
| 20260509042553 | 45 | 240 | 3.5 | 8.7 | 0.00 | 0.00 | 0.00 | 57 | 1009.7 |
| 20260509042049 | 45 | 196 | 2.6 | 8.7 | 0.00 | 0.00 | 0.00 | 56 | 1009.6 |
| 20260509041552 | 45 | 231 | 2.6 | 7.0 | 0.00 | 0.00 | 0.00 | 56 | 1009.6 |
| 20260509041049 | 45 | 205 | 3.5 | 7.0 | 0.00 | 0.00 | 0.00 | 56 | 1009.5 |
| 20260509040548 | 45 | 229 | 2.6 | 7.0 | 0.00 | 0.00 | 0.00 | 56 | 1009.5 |
| 20260509040124 | 45 | 227 | 1.7 | 6.1 | 0.00 | 0.00 | 0.00 | 56 | 1009.5 |
| 20260509035548 | 46 | 234 | 2.6 | 7.0 | 0.00 | 0.00 | 0.00 | 55 | 1009.7 |
| 20260509035049 | 46 | 229 | 2.6 | 7.0 | 0.00 | 0.00 | 0.00 | 55 | 1009.6 |
| 20260509034556 | 46 | 188 | 1.7 | 7.0 | 0.00 | 0.00 | 0.00 | 56 | 1009.6 |
| 20260509034048 | 46 | 209 | 1.7 | 7.8 | 0.00 | 0.00 | 0.00 | 55 | 1009.6 |